Vorticity
8 -15 -15 4 15 13 -21 -0 3 -10 -8 10 8 6 15 9 14 5 12 4 12 7 6 8 9 6 8 11 7 6 6 9 5 8 10 8 7 5 23 23 23 7 11 10
-5 -8 2 -3 13 22 11 4 5 8 3 19 -5 6 -3 5 6 2 11 -18 12 12 6 8 8 10 9 10 9 6 6 13 8 6 5 6 6 5 -3 4 4 4 4 10
3 25 1 2 0 -5 13 3 2 -4 6 24 6 11 -1 -12 9 3 9 -2 2 5 6 6 9 12 11 9 11 12 11 9 12 9 8 7 6 5 3 17 8 1 14 6
8 -27 -1 24 14 20 4 -2 9 -7 -2 11 1 5 11 -6 2 4 10 21 -24 14 5 2 8 5 2 6 6 8 9 12 11 11 11 8 7 6 7 8 6 6 7 8
14 2 9 12 11 -8 -2 26 3 18 3 1 28 4 -4 -7 3 4 5 21 38 -33 6 4 -0 -1 8 7 2 -10 -8 14 8 8 9 11 5 8 8 9 8 9 7 6
5 12 3 15 9 -7 4 -1 16 20 18 11 19 10 10 -5 4 4 5 -5 13 -3 10 8 5 -1 3 7 7 12 13 4 15 13 6 1 5 1 2 7 4 8 -3 3
7 17 23 26 -8 7 -15 3 5 -1 4 2 10 27 -0 11 -10 36 1 1 4 32 3 8 2 1 4 -3 -3 4 11 2 2 0 6 7 1 19 13 23 35 5 15 -8
12 4 24 2 7 0 22 9 4 9 -1 25 5 0 1 12 -13 9 -9 9 3 4 13 -1 5 5 2 2 5 10 9 10 9 -3 -5 10 7 7 5 2 9 8 7 6
14 5 -3 36 22 -5 7 5 14 3 5 29 1 33 -35 19 28 6 8 8 11 5 7 -22 -1 -2 -4 1 7 11 11 9 8 9 1 3 10 5 -4 0 0 2 6 5
-1 22 21 14 2 3 2 12 3 8 6 4 9 55 4 -13 37 -1 8 6 7 5 2 -4 1 4 2 3 6 5 8 6 2 4 5 6 6 10 8 6 3 3 1 3
5 7 16 4 5 24 11 14 17 -4 11 -9 4 33 -14 4 50 188 4 10 1 3 3 7 7 3 4 5 4 5 5 4 5 5 5 4 7 10 5 5 6 4 3 1
-3 -5 18 2 9 6 6 -10 20 0 12 11 23 -4 6 14 9 70 -3 7 7 5 6 8 7 6 7 5 7 5 3 4 6 7 5 6 5 9 9 6 3 2 4 5
11 1 -3 22 8 10 1 3 15 -9 13 -0 25 10 7 7 82 18 -11 4 8 10 7 2 7 6 6 6 3 3 3 4 3 3 2 3 5 7 9 8 6 5 4 3
2 -14 5 5 -28 4 10 -9 -4 23 -2 5 -0 -1 13 -4 -34 15 15 8 7 7 7 2 1 2 3 1 1 2 2 4 5 4 4 4 6 5 7 7 7 7 6 7
19 -12 8 -4 16 25 53 -8 -16 3 7 7 12 2 -5 3 37 36 14 -2 14 12 4 0 3 3 3 5 8 6 5 6 7 6 6 5 5 5 5 6 9 8 6 8
10 2 17 10 10 22 13 0 6 3 -1 10 19 13 4 -9 3 3 -21 2 1 9 4 6 8 10 9 8 8 9 9 8 7 6 6 5 6 6 7 7 7 7 8 10
11 1 14 7 4 2 8 9 1 -3 1 -2 -1 13 12 18 18 17 18 11 7 10 15 11 9 8 7 8 7 6 6 8 8 8 8 8 8 7 7 8 8 8 10 10
6 27 6 -10 -5 8 11 18 8 6 11 19 15 12 11 18 14 13 15 13 6 2 6 7 8 8 7 7 10 9 8 9 9 9 9 8 8 8 9 9 10 12 12 10
2 -9 4 3 5 7 5 4 -0 8 25 17 14 12 11 13 11 7 10 10 9 10 10 9 12 7 10 11 9 8 9 9 9 10 11 13 15 15 15 13 12 13 12 6
14 13 6 11 10 13 28 8 4 4 13 7 4 6 6 9 7 10 11 9 16 -5 0 7 8 9 10 10 12 14 15 15 13 12 10 9 9 8 7 6 5 5 5 4
-13 -8 1 6 10 11 8 8 6 6 7 4 8 6 6 6 8 8 7 7 8 9 9 11 13 14 14 14 12 10 9 7 6 6 6 7 7 8 8 9 9 9 9 8
6 6 13 21 11 9 -0 3 11 6 9 9 8 8 7 7 7 6 8 11 10 12 13 13 12 11 10 8 7 8 8 10 10 10 10 10 10 13 16 15 17 20 20 16
11 12 8 12 -5 17 6 3 3 2 5 7 8 9 11 10 9 11 13 16 16 15 12 10 9 7 7 10 10 10 11 10 11 13 16 18 19 19 14 11 12 12 12 17
7 8 25 15 4 9 10 11 9 7 8 11 11 12 12 14 15 14 15 11 9 8 7 7 9 10 10 10 10 12 15 13 13 13 16 17 17 14 17 13 12 10 6 20
15 10 4 2 9 8 9 11 17 16 11 15 16 14 17 16 13 9 9 7 6 8 10 9 10 8 11 16 16 14 12 9 8 10 13 13 13 13 16 19 21 21 9 22
9 7 6 6 9 14 12 15 15 12 18 16 16 15 9 9 9 7 6 8 11 9 11 9 8 12 14 13 12 11 10 12 14 15 16 15 15 14 13 12 9 10 18 19
Height
5906 5910 5915 5912 5919 5923 5926 5928 5929 5928 5925 5925 5928 5922 5922 5923 5918 5916 5913 5913 5914 5913 5912 5913 5914 5910 5910 5911 5910 5909 5908 5908 5908 5909 5910 5910 5906 5907 5905 5902 5905 5906 5906 5906
5906 5909 5911 5914 5919 5920 5922 5928 5931 5928 5926 5926 5928 5927 5922 5923 5921 5920 5910 5898 5916 5914 5915 5913 5913 5913 5912 5912 5912 5911 5911 5910 5909 5909 5911 5908 5907 5906 5893 5904 5904 5906 5905 5903
5905 5909 5913 5913 5917 5919 5924 5929 5927 5928 5926 5926 5927 5928 5922 5922 5922 5921 5919 5914 5913 5915 5916 5915 5914 5913 5913 5912 5913 5913 5912 5912 5912 5912 5911 5909 5906 5904 5908 5905 5907 5906 5904 5902
5905 5908 5909 5912 5915 5920 5926 5923 5924 5924 5925 5926 5927 5929 5926 5925 5921 5923 5921 5912 5914 5909 5915 5915 5915 5915 5915 5914 5914 5914 5914 5913 5913 5913 5913 5912 5909 5907 5907 5908 5907 5905 5902 5903
5905 5907 5908 5910 5914 5917 5919 5918 5921 5921 5922 5924 5928 5928 5922 5923 5923 5921 5923 5919 5899 5890 5915 5915 5915 5915 5916 5916 5917 5916 5915 5915 5914 5913 5913 5912 5910 5910 5903 5902 5904 5904 5904 5903
5901 5906 5905 5907 5911 5916 5917 5916 5918 5920 5921 5923 5925 5929 5918 5917 5918 5919 5920 5922 5909 5910 5916 5915 5913 5914 5916 5917 5917 5917 5917 5916 5914 5913 5913 5912 5911 5911 5905 5884 5905 5907 5906 5901
5898 5902 5903 5906 5911 5915 5914 5916 5920 5922 5922 5922 5923 5921 5911 5911 5914 5918 5912 5917 5918 5909 5915 5913 5913 5912 5914 5916 5917 5918 5917 5917 5916 5915 5914 5913 5912 5910 5908 5904 5906 5905 5902 5894
5901 5903 5904 5905 5908 5913 5912 5916 5919 5920 5920 5918 5917 5915 5913 5913 5913 5918 5911 5914 5916 5914 5910 5913 5913 5914 5911 5915 5916 5916 5917 5916 5915 5914 5914 5912 5911 5909 5908 5906 5906 5904 5901 5898
5906 5905 5902 5904 5905 5908 5911 5914 5918 5917 5917 5914 5910 5906 5902 5898 5908 5913 5913 5913 5911 5909 5905 5859 5907 5910 5909 5912 5914 5914 5915 5915 5914 5913 5912 5911 5910 5909 5908 5907 5906 5905 5901 5900
5900 5902 5904 5904 5906 5907 5907 5911 5914 5914 5915 5910 5899 5894 5896 5898 5893 5885 5912 5909 5906 5906 5909 5909 5909 5907 5908 5909 5911 5910 5911 5912 5911 5910 5909 5908 5907 5906 5906 5905 5904 5902 5899 5894
5897 5904 5898 5901 5904 5905 5906 5905 5908 5911 5912 5906 5897 5898 5896 5897 5888 5852 5893 5904 5899 5898 5904 5906 5906 5908 5908 5908 5908 5907 5906 5907 5905 5905 5904 5904 5904 5903 5902 5901 5899 5898 5896 5893
5893 5893 5897 5894 5898 5903 5908 5909 5910 5910 5907 5903 5899 5884 5886 5889 5881 5873 5883 5897 5898 5890 5896 5900 5903 5905 5905 5905 5904 5903 5901 5902 5901 5900 5899 5899 5898 5896 5896 5894 5894 5893 5891 5890
5889 5892 5886 5890 5891 5892 5898 5899 5905 5904 5903 5902 5899 5893 5881 5877 5880 5884 5887 5890 5892 5891 5890 5890 5896 5900 5899 5899 5897 5896 5894 5894 5894 5893 5891 5892 5892 5891 5889 5889 5888 5886 5885 5883
5886 5888 5881 5886 5888 5887 5891 5895 5895 5898 5899 5897 5898 5892 5881 5875 5868 5874 5880 5883 5882 5885 5886 5885 5888 5891 5890 5890 5889 5889 5887 5886 5886 5885 5883 5883 5882 5881 5881 5880 5879 5878 5876 5875
5884 5884 5881 5880 5882 5885 5890 5891 5891 5896 5894 5891 5890 5892 5888 5881 5870 5867 5863 5885 5884 5879 5879 5878 5881 5883 5882 5882 5881 5881 5880 5879 5878 5876 5875 5873 5872 5871 5870 5869 5868 5867 5866 5865
5881 5886 5876 5875 5878 5882 5880 5887 5891 5890 5889 5888 5885 5887 5885 5883 5874 5867 5854 5872 5877 5873 5869 5870 5874 5875 5875 5874 5874 5874 5872 5871 5871 5868 5866 5864 5863 5861 5860 5859 5858 5857 5856 5854
5878 5882 5876 5882 5881 5881 5876 5881 5884 5883 5882 5880 5881 5875 5877 5879 5874 5867 5863 5857 5856 5863 5865 5865 5867 5868 5866 5866 5864 5862 5861 5862 5859 5858 5856 5854 5852 5850 5848 5847 5845 5844 5843 5842
5875 5874 5876 5876 5877 5879 5883 5877 5877 5876 5874 5874 5872 5872 5871 5872 5870 5865 5861 5858 5859 5860 5861 5859 5859 5857 5855 5855 5855 5852 5850 5849 5848 5846 5844 5841 5838 5837 5835 5831 5830 5830 5829 5828
5870 5869 5870 5871 5872 5874 5875 5873 5866 5866 5869 5865 5867 5864 5865 5867 5866 5861 5859 5858 5856 5854 5853 5850 5848 5847 5845 5843 5841 5839 5838 5835 5833 5831 5828 5826 5825 5823 5821 5818 5815 5814 5813 5813
5865 5863 5865 5866 5865 5865 5868 5859 5861 5862 5865 5857 5858 5859 5858 5859 5856 5856 5853 5851 5849 5846 5845 5842 5839 5836 5834 5831 5829 5827 5825 5822 5819 5816 5814 5811 5809 5807 5805 5803 5801 5800 5798 5797
5858 5858 5859 5860 5860 5863 5859 5854 5856 5859 5858 5854 5853 5850 5849 5848 5849 5847 5844 5842 5839 5836 5833 5830 5828 5825 5822 5819 5816 5814 5811 5808 5806 5802 5799 5797 5794 5791 5789 5787 5784 5783 5781 5780
5853 5852 5854 5855 5856 5859 5849 5849 5851 5852 5849 5848 5847 5845 5842 5839 5838 5836 5834 5832 5829 5826 5822 5820 5817 5815 5812 5807 5805 5803 5799 5796 5792 5789 5786 5783 5779 5775 5772 5769 5766 5763 5761 5760
5847 5846 5846 5848 5844 5846 5845 5843 5842 5841 5841 5840 5838 5837 5835 5831 5827 5825 5824 5822 5819 5817 5814 5811 5808 5805 5800 5796 5792 5789 5785 5781 5778 5774 5770 5766 5762 5759 5755 5752 5749 5746 5743 5740
5840 5836 5838 5840 5836 5837 5839 5837 5835 5833 5831 5831 5829 5825 5825 5823 5820 5816 5815 5812 5810 5807 5804 5801 5797 5793 5789 5784 5779 5774 5770 5766 5762 5758 5754 5750 5747 5743 5740 5737 5733 5730 5726 5721
5834 5831 5830 5833 5828 5829 5830 5828 5828 5825 5822 5820 5819 5816 5815 5813 5811 5809 5806 5804 5801 5797 5794 5790 5785 5781 5777 5771 5766 5761 5757 5752 5747 5743 5739 5735 5731 5728 5725 5721 5717 5714 5710 5704
5826 5824 5822 5822 5821 5822 5819 5821 5818 5816 5815 5812 5808 5808 5807 5806 5804 5801 5797 5795 5791 5787 5783 5779 5774 5768 5763 5758 5753 5748 5743 5738 5733 5728 5723 5719 5715 5712 5709 5707 5704 5701 5697 5693